| time (UTC) | temp F | wind direction | speed knots | gust knots | rain 1hr in | rain 24hr in | rain mn in | humidity % | barometer mb |
| 20260505171522 | 63 | 47 | 0.0 | 2.6 | 0.00 | 0.69 | 0.69 | 92 | 1006.4 |
| 20260505170020 | 63 | 352 | 0.0 | 1.7 | 0.00 | 0.69 | 0.69 | 93 | 1006.6 |
| 20260505164514 | 63 | 313 | 0.0 | 6.1 | 0.00 | 0.69 | 0.69 | 93 | 1006.2 |
| 20260505163021 | 63 | 319 | 0.0 | 1.7 | 0.00 | 0.69 | 0.69 | 93 | 1006.1 |
| 20260505161518 | 63 | 282 | 0.0 | 1.7 | 0.00 | 0.69 | 0.69 | 93 | 1006.1 |
| 20260505153016 | 62 | 324 | 0.0 | 3.5 | 0.00 | 0.69 | 0.69 | 95 | 1005.8 |
| 20260505151519 | 62 | 64 | 0.0 | 1.7 | 0.00 | 0.69 | 0.69 | 95 | 1006.0 |
| 20260505124528 | 60 | 57 | 0.9 | 1.7 | 0.00 | 0.68 | 0.68 | 95 | 1006.0 |
| 20260505123026 | 60 | 193 | 0.0 | 0.9 | 0.00 | 0.68 | 0.68 | 95 | 1005.7 |
| 20260505121517 | 60 | 193 | 0.0 | 0.9 | 0.00 | 0.68 | 0.68 | 95 | 1005.4 |
| 20260505120021 | 60 | 193 | 0.0 | 0.9 | 0.00 | 0.68 | 0.68 | 95 | 1005.4 |
| 20260505114519 | 60 | 254 | 0.0 | 0.9 | 0.00 | 0.68 | 0.68 | 95 | 1005.2 |
| 20260505113020 | 60 | 254 | 0.0 | 0.9 | 0.01 | 0.68 | 0.68 | 95 | 1005.0 |
| 20260505111511 | 60 | 254 | 0.0 | 0.9 | 0.03 | 0.68 | 0.68 | 95 | 1005.3 |
| 20260505101518 | 60 | 199 | 0.0 | 2.6 | 0.13 | 0.65 | 0.65 | 95 | 1006.5 |
| 20260505100021 | 60 | 304 | 0.0 | 1.7 | 0.15 | 0.61 | 0.61 | 95 | 1006.8 |
| 20260505094506 | 60 | 77 | 0.0 | 1.7 | 0.16 | 0.58 | 0.58 | 95 | 1006.5 |
| 20260505093025 | 60 | 102 | 0.0 | 1.7 | 0.15 | 0.55 | 0.55 | 95 | 1006.9 |
| 20260505091510 | 60 | 311 | 0.0 | 2.6 | 0.15 | 0.52 | 0.52 | 94 | 1006.1 |
| 20260505090004 | 60 | 352 | 0.9 | 1.7 | 0.18 | 0.46 | 0.46 | 94 | 1006.0 |
| 20260505084506 | 60 | 126 | 0.9 | 2.6 | 0.38 | 0.43 | 0.43 | 94 | 1005.9 |
| 20260505083008 | 60 | 117 | 0.0 | 2.6 | 0.37 | 0.40 | 0.40 | 94 | 1006.4 |
| 20260505081507 | 60 | 266 | 0.0 | 2.6 | 0.35 | 0.37 | 0.37 | 94 | 1006.4 |
| 20260505080008 | 60 | 96 | 0.9 | 2.6 | 0.27 | 0.28 | 0.28 | 93 | 1006.9 |
| 20260505074508 | 59 | 34 | 0.9 | 2.6 | 0.05 | 0.05 | 0.05 | 93 | 1006.6 |
| 20260505073008 | 60 | 132 | 0.0 | 1.7 | 0.03 | 0.03 | 0.03 | 92 | 1006.1 |
| 20260505071510 | 60 | 171 | 0.0 | 1.7 | 0.02 | 0.02 | 0.02 | 90 | 1006.4 |
| 20260505070013 | 60 | 292 | 0.9 | 1.7 | 0.01 | 0.01 | 0.01 | 90 | 1006.2 |
| 20260505064517 | 60 | 319 | 0.0 | 0.9 | 0.00 | 0.00 | 0.00 | 89 | 1005.9 |
| 20260505063016 | 60 | 319 | 0.0 | 0.9 | 0.00 | 0.00 | 0.00 | 88 | 1006.4 |
| 20260505061507 | 59 | 319 | 0.0 | 1.7 | 0.00 | 0.00 | 0.00 | 88 | 1006.6 |
| 20260505060023 | 59 | 324 | 0.0 | 0.9 | 0.00 | 0.00 | 0.00 | 88 | 1006.7 |
| 20260505054531 | 59 | 324 | 0.0 | 0.9 | 0.00 | 0.00 | 0.00 | 89 | 1006.4 |
| 20260505053018 | 58 | 323 | 0.0 | 0.9 | 0.00 | 0.00 | 0.00 | 90 | 1006.4 |
| 20260505051521 | 58 | 323 | 0.0 | 1.7 | 0.00 | 0.00 | 0.00 | 89 | 1006.1 |
| 20260505041521 | 58 | 31 | 0.0 | 0.9 | 0.00 | 0.00 | 0.00 | 87 | 1006.8 |
| 20260505040025 | 59 | 72 | 0.0 | 0.9 | 0.00 | 0.00 | 0.00 | 87 | 1007.1 |
| 20260505034514 | 59 | 134 | 0.0 | 0.9 | 0.00 | 0.00 | 0.00 | 85 | 1007.2 |
| 20260505033021 | 60 | 155 | 0.0 | 0.0 | 0.00 | 0.00 | 0.00 | 83 | 1007.3 |
| 20260505031519 | 60 | 155 | 0.0 | 0.0 | 0.00 | 0.00 | 0.00 | 82 | 1007.4 |
| 20260505030025 | 61 | 150 | 0.0 | 0.9 | 0.00 | 0.00 | 0.00 | 80 | 1007.4 |
| 20260505024510 | 62 | 146 | 0.0 | 0.9 | 0.00 | 0.00 | 0.00 | 77 | 1007.3 |
| 20260505023018 | 63 | 142 | 0.0 | 0.0 | 0.00 | 0.00 | 0.00 | 74 | 1007.2 |
| 20260505021524 | 65 | 142 | 0.0 | 0.9 | 0.00 | 0.00 | 0.00 | 72 | 1006.9 |
| 20260505020022 | 67 | 142 | 0.0 | 0.9 | 0.00 | 0.00 | 0.00 | 66 | 1006.7 |
| 20260505014522 | 68 | 178 | 0.0 | 2.6 | 0.00 | 0.00 | 0.00 | 62 | 1006.4 |
| 20260505013017 | 69 | 213 | 0.0 | 2.6 | 0.00 | 0.00 | 0.00 | 61 | 1006.0 |
| 20260505011519 | 70 | 152 | 0.0 | 4.3 | 0.00 | 0.00 | 0.00 | 57 | 1005.9 |
| 20260505010024 | 72 | 193 | 1.7 | 10.4 | 0.00 | 0.00 | 0.00 | 55 | 1005.8 |
| 20260505004538 | 72 | 163 | 1.7 | 6.1 | 0.00 | 0.00 | 0.00 | 55 | 1005.8 |
| 20260505003025 | 73 | 273 | 0.9 | 11.3 | 0.00 | 0.00 | 0.00 | 54 | 1005.7 |
| 20260505001515 | 73 | 275 | 2.6 | 8.7 | 0.00 | 0.00 | 0.00 | 53 | 1005.7 |
| 20260505000021 | 74 | 189 | 0.9 | 5.2 | 0.00 | 0.00 | 0.00 | 54 | 1005.7 |
| 20260504234527 | 75 | 254 | 1.7 | 8.7 | 0.00 | 0.00 | 0.00 | 51 | 1005.6 |
| 20260504233020 | 76 | 167 | 1.7 | 6.1 | 0.00 | 0.00 | 0.00 | 51 | 1005.6 |
| 20260504231532 | 76 | 165 | 2.6 | 7.8 | 0.00 | 0.00 | 0.00 | 49 | 1005.7 |
| 20260504230022 | 77 | 333 | 2.6 | 8.7 | 0.00 | 0.00 | 0.00 | 48 | 1005.6 |
| 20260504224522 | 77 | 244 | 0.9 | 9.6 | 0.00 | 0.00 | 0.00 | 49 | 1005.8 |
| 20260504223022 | 78 | 250 | 1.7 | 6.1 | 0.00 | 0.00 | 0.00 | 48 | 1005.8 |
| 20260504221523 | 78 | 196 | 2.6 | 8.7 | 0.00 | 0.00 | 0.00 | 46 | 1006.1 |
| 20260504220024 | 78 | 179 | 2.6 | 10.4 | 0.00 | 0.00 | 0.00 | 48 | 1006.1 |
| 20260504214534 | 78 | 206 | 4.3 | 9.6 | 0.00 | 0.00 | 0.00 | 45 | 1006.1 |
| 20260504213029 | 78 | 97 | 2.6 | 12.2 | 0.00 | 0.00 | 0.00 | 45 | 1006.4 |
| 20260504211526 | 79 | 157 | 2.6 | 8.7 | 0.00 | 0.00 | 0.00 | 45 | 1006.5 |
| 20260504210024 | 80 | 136 | 2.6 | 8.7 | 0.00 | 0.00 | 0.00 | 43 | 1006.7 |
| 20260504204550 | 80 | 201 | 1.7 | 10.4 | 0.00 | 0.00 | 0.00 | 45 | 1006.8 |
| 20260504203029 | 80 | 179 | 3.5 | 10.4 | 0.00 | 0.00 | 0.00 | 43 | 1006.9 |
| 20260504201528 | 79 | 328 | 4.3 | 11.3 | 0.00 | 0.00 | 0.00 | 42 | 1007.2 |
| 20260504200014 | 79 | 162 | 4.3 | 11.3 | 0.00 | 0.00 | 0.00 | 43 | 1007.4 |
| 20260504194513 | 80 | 132 | 4.3 | 12.2 | 0.00 | 0.00 | 0.00 | 44 | 1007.4 |
| 20260504193017 | 79 | 360 | 3.5 | 13.0 | 0.00 | 0.00 | 0.00 | 45 | 1007.7 |
| 20260504191511 | 79 | 232 | 4.3 | 15.6 | 0.00 | 0.00 | 0.00 | 46 | 1007.6 |
| 20260504190017 | 79 | 279 | 1.7 | 10.4 | 0.00 | 0.00 | 0.00 | 45 | 1007.8 |
| 20260504184516 | 79 | 352 | 4.3 | 14.8 | 0.00 | 0.00 | 0.00 | 44 | 1007.9 |
| 20260504183018 | 78 | 225 | 3.5 | 12.2 | 0.00 | 0.00 | 0.00 | 48 | 1008.2 |
| 20260504181512 | 78 | 175 | 2.6 | 13.0 | 0.00 | 0.00 | 0.00 | 47 | 1008.2 |
| 20260504180014 | 77 | 293 | 2.6 | 12.2 | 0.00 | 0.00 | 0.00 | 50 | 1008.3 |
| 20260504174523 | 76 | 151 | 2.6 | 11.3 | 0.00 | 0.00 | 0.00 | 49 | 1008.8 |
| 20260504173020 | 76 | 148 | 3.5 | 15.6 | 0.00 | 0.00 | 0.00 | 47 | 1008.9 |